Location: Casone le Fosse
(44.6547°N, 12.1103°E)
Time: 04:37:00
(UTC+00:00)

Cosmos 220 Rocket - Pass Details

Date: 29 October 2020
Orbit: 574 x 617 km, 74.0° (Epoch: 01 December)

Event Time Altitude Azimuth Distance (km) Brightness Sun altitude
Rises 17:44:46 0° 205° (SSW) 2,830 7.8 -18.4°
Reaches altitude 10° 17:46:58 10° 208° (SSW) 1,940 7.0 -18.8°
Maximum altitude 17:51:18 70° 292° (WNW) 649 4.3 -19.6°
Drops below altitude 10° 17:55:43 10° 17° (NNE) 1,978 6.5 -20.3°
Enters shadow 17:55:45 10° 17° (NNE) 1,992 6.5 -20.3°
